N2RDT Weather Reports


time (UTC)temp
C
wind
direction
speed
KPH
gust
KPH
rain 1hr
cm
rain 24hr
cm
rain mn
cm
humidity
%
barometer
mb
20260510184119 27 201 4.8 9.7 0.00 0.00 0.00 32 1014.8
20260510183614 27 201 4.8 9.7 0.00 0.00 0.00 32 1015.1
20260510183109 27 201 4.8 9.7 0.00 0.00 0.00 32 1015.1
20260510182607 27 201 4.8 9.7 0.00 0.00 0.00 32 1015.0
20260510182102 27 95 4.8 9.7 0.00 0.00 0.00 36 1014.9
20260510181559 27 95 4.8 9.7 0.00 0.00 0.00 36 1015.1
20260510181055 27 95 4.8 9.7 0.00 0.00 0.00 36 1015.2
20260510180552 -17 0.0 0.0 0.00 0.00 0.00 1015.1
20260510180051 -17 0.0 0.0 0.00 0.00 0.00 1015.3
20260510175550 -17 0.0 0.0 0.00 0.00 0.00 1015.3
20260510175046 -17 0.0 0.0 0.00 0.00 0.00 1015.3
20260510174545 -17 0.0 0.0 0.00 0.00 0.00 1015.3
20260510174041 -17 0.0 0.0 0.00 0.00 0.00 1015.3
20260510173537 -17 0.0 0.0 0.00 0.00 0.00 1015.1
20260510173034 -17 0.0 0.0 0.00 0.00 0.00 1015.4
20260510172530 -17 0.0 0.0 0.00 0.00 0.00 1015.2
20260510172026 -17 0.0 0.0 0.00 0.00 0.00 1015.3
20260510171523 -17 0.0 0.0 0.00 0.00 0.00 1015.3
20260510171020 -17 0.0 0.0 0.00 0.00 0.00 1015.2
20260510170517 -17 0.0 0.0 0.00 0.00 0.00 1015.4
20260510170014 -17 0.0 0.0 0.00 0.00 0.00 1015.3
20260510165509 -17 0.0 0.0 0.00 0.00 0.00 1015.3
20260510165006 -17 0.0 0.0 0.00 0.00 0.00 1015.6
20260510164502 -17 0.0 0.0 0.00 0.00 0.00 1015.5
20260510163958 25 228 3.2 4.8 0.00 0.00 0.00 41 1015.5
20260510163454 25 228 3.2 4.8 0.00 0.00 0.00 41 1015.7
20260510162949 25 228 3.2 4.8 0.00 0.00 0.00 41 1015.5
20260510162446 25 228 3.2 4.8 0.00 0.00 0.00 41 1015.6
20260510161942 25 228 3.2 4.8 0.00 0.00 0.00 41 1015.6
20260510161438 25 228 3.2 4.8 0.00 0.00 0.00 41 1015.8
20260510160936 25 228 3.2 4.8 0.00 0.00 0.00 41 1015.8
20260510160433 25 228 3.2 4.8 0.00 0.00 0.00 41 1015.8
20260510155931 25 228 3.2 4.8 0.00 0.00 0.00 41 1015.9
20260510155428 25 228 3.2 4.8 0.00 0.00 0.00 41 1015.9
20260510154924 25 228 3.2 4.8 0.00 0.00 0.00 41 1016.1
20260510154420 25 228 3.2 4.8 0.00 0.00 0.00 41 1016.2
20260510153914 26 38 6.4 6.4 0.00 0.00 0.00 45 1016.1
20260510153411 26 38 6.4 6.4 0.00 0.00 0.00 45 1016.3
20260510152908 26 38 6.4 6.4 0.00 0.00 0.00 45 1016.1
20260510152405 26 38 6.4 6.4 0.00 0.00 0.00 45 1016.2
20260510151901 26 38 6.4 6.4 0.00 0.00 0.00 45 1016.0
20260510151359 26 38 6.4 6.4 0.00 0.00 0.00 45 1016.0
20260510150855 26 38 6.4 6.4 0.00 0.00 0.00 45 1016.1
20260510150351 26 109 1.6 3.2 0.00 0.00 0.00 51 1015.9
20260510145847 24 94 0.0 3.2 0.00 0.00 0.00 55 1015.9
20260510145344 24 94 0.0 3.2 0.00 0.00 0.00 55 1016.2
20260510144840 24 94 0.0 3.2 0.00 0.00 0.00 55 1016.1
20260510144337 24 94 0.0 3.2 0.00 0.00 0.00 55 1015.8
20260510143836 24 94 0.0 3.2 0.00 0.00 0.00 55 1015.9
20260510143333 24 94 0.0 3.2 0.00 0.00 0.00 55 1015.9
20260510142830 24 94 0.0 3.2 0.00 0.00 0.00 55 1015.9
20260510142327 24 94 0.0 3.2 0.00 0.00 0.00 55 1015.8
20260510141823 24 94 0.0 3.2 0.00 0.00 0.00 55 1015.7
20260510141321 24 94 0.0 3.2 0.00 0.00 0.00 55 1015.8
20260510140819 23 214 4.8 6.4 0.00 0.00 0.00 55 1015.8
20260510140315 23 257 3.2 8.0 0.00 0.00 0.00 58 1015.9
20260510135813 23 161 4.8 6.4 0.00 0.00 0.00 56 1015.9
20260510135309 23 232 3.2 6.4 0.00 0.00 0.00 55 1015.9
20260510134807 23 251 3.2 3.2 0.00 0.00 0.00 57 1015.9
20260510134304 23 268 6.4 6.4 0.00 0.00 0.00 58 1015.9
20260510133759 23 223 3.2 6.4 0.00 0.00 0.00 60 1015.7
20260510133256 23 223 3.2 6.4 0.00 0.00 0.00 60 1015.7
20260510132751 22 272 3.2 4.8 0.00 0.00 0.00 62 1015.8
20260510132250 22 272 3.2 4.8 0.00 0.00 0.00 62 1015.8
20260510131746 18 131 1.6 3.2 0.00 0.00 0.00 89 1015.6
20260510131244 18 131 1.6 3.2 0.00 0.00 0.00 89 1015.7
20260510130740 18 131 1.6 3.2 0.00 0.00 0.00 89 1015.6
20260510130237 18 131 1.6 3.2 0.00 0.00 0.00 89 1015.4
20260510125734 18 131 1.6 3.2 0.00 0.00 0.00 89 1015.4
20260510125229 18 131 1.6 3.2 0.00 0.00 0.00 89 1015.4
20260510124726 18 131 1.6 3.2 0.00 0.00 0.00 89 1015.4
20260510124224 18 131 1.6 3.2 0.00 0.00 0.00 89 1015.3
20260510123719 18 131 1.6 3.2 0.00 0.00 0.00 89 1015.4
20260510123215 18 131 1.6 3.2 0.00 0.00 0.00 89 1015.2
20260510122712 18 131 1.6 3.2 0.00 0.00 0.00 89 1015.3
20260510122208 18 131 1.6 6.4 0.00 0.00 0.00 89 1015.2
20260510121704 17 85 3.2 3.2 0.00 0.00 0.00 93 1015.3
20260510121202 17 85 3.2 3.2 0.00 0.00 0.00 93 1015.0
20260510120659 17 97 3.2 4.8 0.00 0.00 0.00 93 1015.0
20260510120156 17 142 3.2 3.2 0.00 0.00 0.00 94 1015.0
20260510115651 16 70 3.2 3.2 0.00 0.00 0.00 98 1014.9
20260510115150 16 70 3.2 3.2 0.00 0.00 0.00 98 1015.1
20260510114645 16 70 3.2 3.2 0.00 0.00 0.00 98 1014.9
20260510114142 16 70 3.2 3.2 0.00 0.00 0.00 98 1014.8
20260510113637 16 70 3.2 3.2 0.00 0.00 0.00 98 1014.9
20260510113134 16 74 3.2 3.2 0.00 0.00 0.00 98 1014.8
20260510112631 15 102 3.2 3.2 0.00 0.00 0.00 98 1014.6
20260510112128 15 62 1.6 3.2 0.00 0.00 0.00 98 1014.7
20260510111624 15 90 3.2 4.8 0.00 0.00 0.00 98 1014.6
20260510111120 15 66 3.2 4.8 0.00 0.00 0.00 98 1014.3
20260510110616 15 66 3.2 4.8 0.00 0.00 0.00 98 1014.2
20260510110113 15 109 1.6 3.2 0.00 0.00 0.00 98 1014.3
20260510105608 15 104 3.2 4.8 0.00 0.00 0.00 98 1014.4
20260510105103 15 118 4.8 6.4 0.00 0.00 0.00 98 1014.3
20260510104600 -17 0.0 0.0 0.00 0.00 0.00 1014.2
20260510104056 -17 0.0 0.0 0.00 0.00 0.00 1013.8
20260510103554 15 69 1.6 3.2 0.00 0.00 0.00 97 1013.7
20260510103049 15 69 1.6 3.2 0.00 0.00 0.00 97 1013.6
20260510102545 15 69 1.6 3.2 0.00 0.00 0.00 97 1013.7
20260510102041 15 69 1.6 3.2 0.00 0.00 0.00 97 1013.7
20260510101539 15 69 1.6 3.2 0.00 0.00 0.00 97 1013.5
20260510101038 15 69 1.6 3.2 0.00 0.00 0.00 97 1013.5
20260510100533 15 69 1.6 3.2 0.00 0.00 0.00 97 1013.4
20260510100031 15 69 1.6 3.2 0.00 0.00 0.00 97 1013.3
20260510095526 15 69 1.6 3.2 0.00 0.00 0.00 97 1013.3
20260510095025 15 69 1.6 3.2 0.00 0.00 0.00 97 1013.1
20260510094520 15 69 1.6 3.2 0.00 0.00 0.00 97 1013.0
20260510094016 15 69 1.6 3.2 0.00 0.00 0.00 97 1013.1
20260510093512 15 54 0.0 0.0 0.00 0.00 0.00 97 1013.2
20260510093009 15 54 0.0 0.0 0.00 0.00 0.00 97 1013.0
20260510092506 15 72 3.2 3.2 0.00 0.00 0.00 97 1013.0
20260510092006 15 75 1.6 3.2 0.00 0.00 0.00 97 1012.8
20260510091503 15 62 3.2 3.2 0.00 0.00 0.00 97 1012.7
20260510090959 15 111 3.2 3.2 0.00 0.00 0.00 97 1012.9
20260510090456 15 126 0.0 1.6 0.00 0.00 0.00 97 1012.8
20260510085951 15 126 0.0 1.6 0.00 0.00 0.00 97 1012.8
20260510085447 15 126 0.0 1.6 0.00 0.00 0.00 97 1012.8
20260510084942 15 126 0.0 1.6 0.00 0.00 0.00 97 1012.6
20260510084440 15 126 0.0 1.6 0.00 0.00 0.00 97 1012.5
20260510083936 15 126 0.0 1.6 0.00 0.00 0.00 97 1012.5
20260510083433 15 76 0.0 1.6 0.00 0.00 0.00 97 1012.5
20260510082928 15 76 0.0 1.6 0.00 0.00 0.00 97 1012.4
20260510082426 15 76 0.0 1.6 0.00 0.00 0.00 97 1012.5
20260510081925 15 76 0.0 1.6 0.00 0.00 0.00 97 1012.4
20260510081421 15 76 0.0 1.6 0.00 0.00 0.00 97 1012.4
20260510080918 15 76 0.0 1.6 0.00 0.00 0.00 97 1012.4
20260510080417 15 78 3.2 3.2 0.00 0.00 0.00 96 1012.4
20260510075914 15 78 3.2 3.2 0.00 0.00 0.00 96 1012.5
20260510075412 -17 0.0 0.0 0.00 0.00 0.00 1012.4
20260510074908 -17 0.0 0.0 0.00 0.00 0.00 1012.3
20260510074405 15 94 0.0 0.0 0.00 0.00 0.00 94 1012.2
20260510073902 15 94 0.0 0.0 0.00 0.00 0.00 94 1012.3
20260510073357 15 94 0.0 0.0 0.00 0.00 0.00 94 1012.3
20260510072853 15 94 0.0 0.0 0.00 0.00 0.00 94 1012.4
20260510072351 15 94 0.0 0.0 0.00 0.00 0.00 94 1012.3
20260510071846 15 94 0.0 0.0 0.00 0.00 0.00 94 1012.4
20260510071343 15 94 0.0 0.0 0.00 0.00 0.00 94 1012.5
20260510070842 15 94 0.0 0.0 0.00 0.00 0.00 94 1012.3
20260510070339 15 94 0.0 0.0 0.00 0.00 0.00 94 1012.3
20260510065838 15 94 0.0 0.0 0.00 0.00 0.00 94 1012.2
20260510065336 15 94 0.0 0.0 0.00 0.00 0.00 94 1012.3
20260510064832 15 94 0.0 0.0 0.00 0.00 0.00 94 1012.3
20260510064330 15 56 1.6 3.2 0.00 0.00 0.00 94 1012.0
20260510063826 -17 0.0 0.0 0.00 0.00 0.00 1012.1
20260510063323 -17 0.0 0.0 0.00 0.00 0.00 1012.1
20260510062819 -17 0.0 0.0 0.00 0.00 0.00 1012.1
20260510062315 -17 0.0 0.0 0.00 0.00 0.00 1012.1
20260510061810 -17 0.0 0.0 0.00 0.00 0.00 1012.4
20260510061308 -17 0.0 0.0 0.00 0.00 0.00 1012.4
20260510060804 -17 0.0 0.0 0.00 0.00 0.00 1012.5
20260510060301 -17 0.0 0.0 0.00 0.00 0.00 1012.5
20260510055758 -17 0.0 0.0 0.00 0.00 0.00 1012.4
20260510055256 -17 0.0 0.0 0.00 0.00 0.00 1012.3
20260510054755 -17 0.0 0.0 0.00 0.00 0.00 1012.4
20260510054252 -17 0.0 0.0 0.00 0.00 0.00 1012.5
20260510053752 -17 0.0 0.0 0.00 0.00 0.00 1012.5
20260510053248 -17 0.0 0.0 0.00 0.00 0.00 1012.5
20260510052744 -17 0.0 0.0 0.00 0.00 0.00 1012.4
20260510052240 -17 0.0 0.0 0.00 0.00 0.00 1012.5
20260510051736 -17 0.0 0.0 0.00 0.00 0.00 1012.6
20260510051233 -17 0.0 0.0 0.00 0.00 0.00 1012.8
20260510050729 -17 0.0 0.0 0.00 0.00 0.00 1012.7
20260510050227 -17 0.0 0.0 0.00 0.00 0.00 1012.9
20260510045724 -17 0.0 0.0 0.00 0.00 0.00 1012.8
20260510045220 -17 0.0 0.0 0.00 0.00 0.00 1012.9
20260510044716 -17 0.0 0.0 0.00 0.00 0.00 1012.8
20260510044215 -17 0.0 0.0 0.00 0.00 0.00 1012.8
20260510043709 -17 0.0 0.0 0.00 0.00 0.00 1012.7
20260510043206 -17 0.0 0.0 0.00 0.00 0.00 1012.8
20260510042704 -17 0.0 0.0 0.00 0.00 0.00 1012.8
20260510042200 15 123 1.6 3.2 0.00 0.00 0.00 96 1012.8
20260510041657 15 123 1.6 3.2 0.00 0.00 0.00 96 1012.8
20260510041154 15 123 1.6 3.2 0.00 0.00 0.00 96 1012.8
20260510040651 15 123 1.6 3.2 0.00 0.00 0.00 96 1012.8
20260510040148 15 123 1.6 3.2 0.00 0.00 0.00 96 1012.6
20260510035643 15 123 1.6 3.2 0.00 0.00 0.00 96 1012.6
20260510035139 15 123 1.6 3.2 0.00 0.00 0.00 96 1012.7
20260510034636 15 123 1.6 3.2 0.00 0.00 0.00 96 1012.5
20260510034133 15 123 1.6 3.2 0.00 0.00 0.00 96 1012.7
20260510033629 15 123 1.6 3.2 0.00 0.00 0.00 96 1012.5
20260510033127 15 123 1.6 3.2 0.00 0.00 0.00 96 1012.4
20260510032623 15 123 1.6 3.2 0.00 0.00 0.00 96 1012.4
20260510032119 15 118 1.6 3.2 0.00 0.00 0.00 96 1012.6
20260510031614 15 85 1.6 3.2 0.00 0.00 0.00 96 1012.5
20260510031111 15 93 3.2 3.2 0.00 0.00 0.00 95 1012.5
20260510030605 15 97 3.2 3.2 0.00 0.00 0.00 95 1012.4
20260510030103 -17 0.0 0.0 0.00 0.00 0.00 1012.3
20260510025600 -17 0.0 0.0 0.00 0.00 0.00 1012.2
20260510025057 -17 0.0 0.0 0.00 0.00 0.00 1012.5
20260510024548 -17 0.0 0.0 0.00 0.00 0.00 1012.4
20260510024044 -17 0.0 0.0 0.00 0.00 0.00 1012.5
20260510023541 -17 0.0 0.0 0.00 0.00 0.00 1012.2
20260510023038 -17 0.0 0.0 0.00 0.00 0.00 1012.2
20260510022537 -17 0.0 0.0 0.00 0.00 0.00 1012.3
20260510022031 -17 0.0 0.0 0.00 0.00 0.00 1012.4
20260510021528 -17 0.0 0.0 0.00 0.00 0.00 1012.5
20260510021026 -17 0.0 0.0 0.00 0.00 0.00 1012.4
20260510020520 -17 0.0 0.0 0.00 0.00 0.00 1012.2
20260510020016 -17 0.0 0.0 0.00 0.00 0.00 1012.2
20260510015512 -17 0.0 0.0 0.00 0.00 0.00 1012.3
20260510015008 -17 0.0 0.0 0.00 0.00 0.00 1012.2
20260510014505 -17 0.0 0.0 0.00 0.00 0.00 1012.1
20260510014003 -17 0.0 0.0 0.00 0.00 0.00 1011.9
20260510013502 -17 0.0 0.0 0.00 0.00 0.00 1011.7
20260510012958 -17 0.0 0.0 0.00 0.00 0.00 1011.8
20260510012453 -17 0.0 0.0 0.00 0.00 0.00 1011.6
20260510011948 -17 0.0 0.0 0.00 0.00 0.00 1011.6
20260510011443 -17 0.0 0.0 0.00 0.00 0.00 1011.5
20260510010939 -17 0.0 0.0 0.00 0.00 0.00 1011.6
20260510010437 -17 0.0 0.0 0.00 0.00 0.00 1011.4
20260510005934 -17 0.0 0.0 0.00 0.00 0.00 1011.5
20260510005430 -17 0.0 0.0 0.00 0.00 0.00 1011.5
20260510004927 -17 0.0 0.0 0.00 0.00 0.00 1011.6
20260510004425 -17 0.0 0.0 0.00 0.00 0.00 1011.3
20260510003923 -17 0.0 0.0 0.00 0.00 0.00 1011.4
20260510003420 -17 0.0 0.0 0.00 0.00 0.00 1011.4
20260510002918 -17 0.0 0.0 0.00 0.00 0.00 1011.5
20260510002415 -17 0.0 0.0 0.00 0.00 0.00 1011.6
20260510001911 -17 0.0 0.0 0.00 0.00 0.00 1011.5
20260510001409 -17 0.0 0.0 0.00 0.00 0.00 1011.2
20260510000906 -17 0.0 0.0 0.00 0.00 0.00 1011.3
20260510000403 -17 0.0 0.0 0.00 0.00 0.00 1011.2
20260509235859 -17 0.0 0.0 0.00 0.00 0.00 1011.1
20260509235356 -17 0.0 0.0 0.00 0.00 0.00 1011.3
20260509234852 -17 0.0 0.0 0.00 0.00 0.00 1011.0
20260509234349 -17 0.0 0.0 0.00 0.00 0.00 1010.8
20260509233847 -17 0.0 0.0 0.00 0.00 0.00 1010.8
20260509233345 -17 0.0 0.0 0.00 0.00 0.00 1011.0
20260509232840 23 159 4.8 6.4 0.00 0.00 0.00 64 1011.0
20260509232338 23 159 4.8 6.4 0.00 0.00 0.00 64 1010.8
20260509231834 23 159 4.8 6.4 0.00 0.00 0.00 64 1010.7
20260509231331 23 159 4.8 6.4 0.00 0.00 0.00 64 1010.6
20260509230829 23 159 4.8 6.4 0.00 0.00 0.00 64 1010.7
20260509230326 23 159 4.8 6.4 0.00 0.00 0.00 64 1010.6
20260509225820 23 159 4.8 6.4 0.00 0.00 0.00 64 1010.4
20260509225318 23 159 4.8 6.4 0.00 0.00 0.00 64 1010.5
20260509224814 23 159 4.8 6.4 0.00 0.00 0.00 64 1010.6
20260509224310 23 159 4.8 6.4 0.00 0.00 0.00 64 1010.7
20260509223807 23 159 4.8 6.4 0.00 0.00 0.00 64 1010.8
20260509223304 23 159 4.8 6.4 0.00 0.00 0.00 64 1010.8
20260509222800 22 180 6.4 11.3 0.00 0.00 0.00 65 1010.8
20260509222256 22 180 6.4 11.3 0.00 0.00 0.00 65 1010.7
20260509221752 22 180 6.4 11.3 0.00 0.00 0.00 65 1010.7
20260509221249 22 180 6.4 11.3 0.00 0.00 0.00 65 1010.7
20260509220744 22 145 4.8 9.7 0.00 0.00 0.00 64 1010.9
20260509220241 22 145 4.8 9.7 0.00 0.00 0.00 64 1010.8
20260509215736 22 145 4.8 9.7 0.00 0.00 0.00 64 1010.8
20260509215233 22 145 4.8 9.7 0.00 0.00 0.00 64 1010.6
20260509214730 22 145 4.8 9.7 0.00 0.00 0.00 64 1010.7
20260509214227 22 145 4.8 9.7 0.00 0.00 0.00 64 1010.5
20260509213724 22 145 4.8 9.7 0.00 0.00 0.00 64 1010.6
20260509213220 22 145 4.8 9.7 0.00 0.00 0.00 64 1010.3
20260509212718 22 145 4.8 9.7 0.00 0.00 0.00 64 1010.5
20260509212214 22 145 4.8 9.7 0.00 0.00 0.00 64 1010.5
20260509211710 22 167 16.1 16.1 0.00 0.00 0.00 63 1010.3
20260509211207 22 131 14.5 16.1 0.00 0.00 0.00 63 1010.5
20260509210703 22 131 14.5 16.1 0.00 0.00 0.00 63 1010.4
20260509210201 22 131 14.5 16.1 0.00 0.00 0.00 63 1010.4
20260509205656 22 131 14.5 16.1 0.00 0.00 0.00 63 1010.5
20260509205155 22 138 6.4 8.0 0.00 0.00 0.00 64 1010.5
20260509204652 22 131 6.4 11.3 0.00 0.00 0.00 64 1010.4
20260509204148 22 117 8.0 14.5 0.00 0.00 0.00 63 1010.5
20260509203644 22 176 14.5 27.4 0.00 0.00 0.00 63 1010.4
20260509203143 22 155 12.9 20.9 0.00 0.00 0.00 62 1010.4
20260509202643 22 173 16.1 17.7 0.00 0.00 0.00 62 1010.4
20260509202138 22 132 8.0 12.9 0.00 0.00 0.00 62 1010.4
20260509201633 22 148 4.8 12.9 0.00 0.00 0.00 60 1010.5
20260509201131 22 135 6.4 9.7 0.00 0.00 0.00 62 1010.5
20260509200627 22 110 8.0 9.7 0.00 0.00 0.00 61 1010.7
20260509200122 22 128 12.9 16.1 0.00 0.00 0.00 60 1010.7
20260509195618 22 142 4.8 9.7 0.00 0.00 0.00 59 1010.7
20260509195113 22 148 3.2 8.0 0.00 0.00 0.00 60 1010.7
20260509194612 22 83 9.7 16.1 0.00 0.00 0.00 58 1010.8
20260509194110 22 99 6.4 11.3 0.00 0.00 0.00 58 1010.8
20260509193606 22 98 6.4 6.4 0.00 0.00 0.00 58 1010.8
20260509193102 22 87 3.2 9.7 0.00 0.00 0.00 57 1011.0
20260509192559 22 168 9.7 9.7 0.00 0.00 0.00 56 1011.0
20260509192054 22 88 8.0 14.5 0.00 0.00 0.00 56 1011.0
20260509191554 22 179 19.3 20.9 0.00 0.00 0.00 55 1011.1
20260509191050 22 131 8.0 8.0 0.00 0.00 0.00 57 1011.2
20260509190547 22 175 16.1 19.3 0.00 0.00 0.00 55 1011.2
20260509190045 23 124 9.7 12.9 0.00 0.00 0.00 53 1010.9
20260509185543 23 140 24.1 25.7 0.00 0.00 0.00 52 1010.8
20260509185039 24 132 4.8 17.7 0.00 0.00 0.00 52 1011.1
20260509184537 24 107 4.8 22.5 0.00 0.00 0.00 53 1010.8